Location: Exeidioux
(45.6312°N, 1.6819°E)
Time: 14:17:27
(UTC+00:00)

SME Rocket - Pass Details

Date: 03 March 2021
Orbit: 550 x 2652 km, 99.9° (Epoch: 11 April)

Event Time Altitude Azimuth Distance (km) Brightness Sun altitude
Rises 19:07:31 0° 17° (NNE) 4,935 7.6 -15.5°
Reaches altitude 10° 19:11:10 10° 22° (NNE) 3,611 6.8 -16.2°
Maximum altitude 19:18:52 48° 95° (E) 1,339 4.3 -17.5°
Drops below altitude 10° 19:23:56 10° 170° (S) 2,394 5.9 -18.4°
Sets 19:25:56 0° 177° (S) 3,153 6.6 -18.7°
